Weather History for KHLX - November, 2013

Change the Weather History Date:

Friday, November 1, 2013

  Actual Average (KBLF) Record (KBLF)
Temperature  
Mean Temperature 65 °F 52 °F  
Max Temperature 73 °F 61 °F 79 °F (2004)
Min Temperature 57 °F 43 °F 26 °F (1993)
Degree Days  
Heating Degree Days 0 13  
Month to date heating degree days 13  
Since 1 July heating degree days 377  
Cooling Degree Days 0 0  
Month to date cooling degree days 0  
Year to date cooling degree days 851  
Growing Degree Days 15 (Base 50)    
Moisture  
Dew Point 54 °F    
Average Humidity 71    
Maximum Humidity 94    
Minimum Humidity 27    
Precipitation  
Precipitation 0.09 in 0.09 in 0.95 in (1972)
Month to date precipitation 0.09  
Year to date precipitation 34.12  
Snow  
Snow 0.00 in - - ()
Month to date snowfall  
Since 1 July snowfall  
Since 1 September snowfall  
Snow Depth -    
Sea Level Pressure  
Sea Level Pressure 29.79 in    
Wind  
Wind Speed 15 mph (SW)    
Max Wind Speed 26 mph    
Max Gust Speed 43 mph    
Visibility 10 miles    
Events Rain    
T = Trace of Precipitation, MM = Missing Value Source: NWS Daily Summary

Daily Weather History Graph

Daily Weather History Graph

Search for Another Location

Airport or City:

Trip Planner

Search our weather history database for the weather conditions in past years. The results will help you decide how hot, cold, wet, or windy it might be!

Date:

Astronomy

Nov. 01, 2013 Rise Set
Actual Time 7:47 AM EDT 6:25 PM EDT
Civil Twilight 7:20 AM EDT 6:52 PM EDT
Nautical Twilight 6:49 AM EDT 7:23 PM EDT
Astronomical Twilight 6:19 AM EDT 7:53 PM EDT
Moon 5:40 AM EDT (11/1) 5:15 PM EDT (11/1)
Length of Visible Light 11h 32m
Length of Day
10h 38m
Waning Crescent, 4% of the Moon is Illuminated
Nov 1
Waning Crescent
Nov 3
New
Nov 10
First Quarter
Nov 17
Full
Nov 25
Last Quarter

Hourly Weather History & Observations

Time (EDT) Temp. Dew Point Humidity Pressure Visibility Wind Dir Wind Speed Gust Speed Precip Events Conditions
12:15 AM 64.4 °F 60.8 °F 88% 29.86 in 10.0 mi South 16.1 mph 31.1 mph N/A   Overcast
12:35 AM 64.4 °F 60.8 °F 88% 29.81 in 10.0 mi South 20.7 mph 27.6 mph N/A Rain Light Rain
12:55 AM 64.4 °F 60.8 °F 88% 29.80 in 10.0 mi South 24.2 mph 42.6 mph N/A   Mostly Cloudy
1:15 AM 64.4 °F 62.6 °F 94% 29.81 in 10.0 mi SSW 23.0 mph 33.4 mph N/A   Overcast
1:35 AM 66.2 °F 60.8 °F 83% 29.83 in 10.0 mi SSW 24.2 mph 38.0 mph N/A   Overcast
1:55 AM 66.2 °F 60.8 °F 83% 29.80 in 10.0 mi SSW 24.2 mph 41.4 mph N/A   Overcast
2:15 AM 66.2 °F 60.8 °F 83% 29.81 in 10.0 mi SSW 26.5 mph 41.4 mph N/A   Overcast
2:35 AM 66.2 °F 60.8 °F 83% 29.78 in 10.0 mi SSW 20.7 mph 34.5 mph N/A   Overcast
2:55 AM 66.2 °F 60.8 °F 83% 29.79 in 10.0 mi South 25.3 mph 38.0 mph N/A   Overcast
3:15 AM 66.2 °F 60.8 °F 83% 29.78 in 10.0 mi SSW 18.4 mph 42.6 mph N/A   Overcast
3:35 AM 66.2 °F 60.8 °F 83% 29.78 in 10.0 mi SSW 24.2 mph 31.1 mph N/A   Overcast
3:55 AM 64.4 °F 60.8 °F 88% 29.78 in 10.0 mi South 18.4 mph 29.9 mph N/A Rain Rain
4:15 AM 64.4 °F 60.8 °F 88% 29.78 in 10.0 mi South 16.1 mph 27.6 mph N/A   Overcast
4:35 AM 66.2 °F 60.8 °F 83% 29.77 in 10.0 mi South 16.1 mph 33.4 mph N/A   Overcast
4:55 AM 66.2 °F 60.8 °F 83% 29.77 in 10.0 mi South 20.7 mph 34.5 mph N/A   Overcast
5:15 AM 66.2 °F 60.8 °F 83% 29.77 in 10.0 mi SSW 18.4 mph 28.8 mph N/A   Overcast
5:35 AM 66.2 °F 60.8 °F 83% 29.77 in 10.0 mi South 16.1 mph 29.9 mph N/A   Overcast
5:55 AM 66.2 °F 60.8 °F 83% 29.76 in 10.0 mi South 21.9 mph 27.6 mph N/A   Mostly Cloudy
6:15 AM 66.2 °F 60.8 °F 83% 29.76 in 10.0 mi SSW 18.4 mph 31.1 mph N/A   Mostly Cloudy
6:35 AM 64.4 °F 60.8 °F 88% 29.76 in 10.0 mi SSW 17.3 mph 32.2 mph N/A   Mostly Cloudy
6:55 AM 64.4 °F 60.8 °F 88% 29.77 in 10.0 mi SSW 17.3 mph 24.2 mph N/A   Mostly Cloudy
7:15 AM 64.4 °F 60.8 °F 88% 29.77 in 10.0 mi SSW 16.1 mph 25.3 mph N/A   Overcast
7:35 AM 64.4 °F 60.8 °F 88% 29.78 in 10.0 mi SSW 16.1 mph 23.0 mph N/A   Overcast
7:55 AM 64.4 °F 60.8 °F 88% 29.80 in 10.0 mi SSW 15.0 mph 21.9 mph N/A   Overcast
8:15 AM 62.6 °F 60.8 °F 94% 29.82 in 2.5 mi West 8.1 mph - 0.04 in Rain Heavy Rain
8:35 AM 60.8 °F 59.0 °F 94% 29.83 in 4.0 mi West 13.8 mph 24.2 mph 0.09 in Rain Rain
8:55 AM 60.8 °F 55.4 °F 82% 29.84 in 10.0 mi West 11.5 mph 18.4 mph N/A   Overcast
9:15 AM 60.8 °F 55.4 °F 82% 29.85 in 7.0 mi WSW 8.1 mph - N/A Rain Light Rain
9:35 AM 60.8 °F 55.4 °F 82% 29.85 in 10.0 mi WSW 12.7 mph - N/A   Mostly Cloudy
9:55 AM 62.6 °F 55.4 °F 77% 29.84 in 10.0 mi WSW 9.2 mph - N/A   Scattered Clouds
10:15 AM 62.6 °F 55.4 °F 77% 29.85 in 10.0 mi WSW 9.2 mph - N/A   Scattered Clouds
10:35 AM 64.4 °F 55.4 °F 73% 29.85 in 10.0 mi WSW 10.4 mph - N/A   Scattered Clouds
10:55 AM 64.4 °F 57.2 °F 77% 29.84 in 10.0 mi SW 5.8 mph - N/A   Clear
11:15 AM 64.4 °F 57.2 °F 77% 29.84 in 10.0 mi SSW 4.6 mph - N/A   Scattered Clouds
11:35 AM 66.2 °F 57.2 °F 73% 29.84 in 10.0 mi WSW 11.5 mph - N/A   Clear
11:55 AM 69.8 °F 55.4 °F 60% 29.83 in 10.0 mi WSW 12.7 mph 16.1 mph N/A   Scattered Clouds
12:15 PM 68.0 °F 55.4 °F 64% 29.82 in 10.0 mi SW 12.7 mph - N/A   Scattered Clouds
12:35 PM 69.8 °F 53.6 °F 56% 29.81 in 10.0 mi WSW 11.5 mph - N/A   Clear
12:55 PM 69.8 °F 55.4 °F 60% 29.80 in 10.0 mi SW 10.4 mph - N/A   Clear
1:15 PM 71.6 °F 53.6 °F 53% 29.79 in 10.0 mi WSW 12.7 mph 18.4 mph N/A   Clear
1:35 PM 71.6 °F 53.6 °F 53% 29.77 in 10.0 mi SSW 8.1 mph 16.1 mph N/A   Clear
1:55 PM 71.6 °F 51.8 °F 50% 29.76 in 10.0 mi SW 11.5 mph - N/A   Clear
2:15 PM 73.4 °F 51.8 °F 47% 29.76 in 10.0 mi SW 6.9 mph 18.4 mph N/A   Clear
2:35 PM 73.4 °F 48.2 °F 41% 29.76 in 10.0 mi SSW 12.7 mph 18.4 mph N/A   Clear
2:55 PM 73.4 °F 44.6 °F 36% 29.75 in 10.0 mi SW 13.8 mph 20.7 mph N/A   Clear
3:15 PM 73.4 °F 42.8 °F 33% 29.74 in 10.0 mi SW 15.0 mph 19.6 mph N/A   Clear
3:35 PM 73.4 °F 42.8 °F 33% 29.74 in 10.0 mi WSW 12.7 mph 24.2 mph N/A   Clear
3:55 PM 73.4 °F 39.2 °F 29% 29.75 in 10.0 mi SW 9.2 mph - N/A   Clear
4:15 PM 73.4 °F 37.4 °F 27% 29.75 in 10.0 mi SW 9.2 mph 20.7 mph N/A   Clear
5:55 PM 69.8 °F 57.2 °F 64% 29.74 in 10.0 mi Calm Calm - N/A   Clear
6:15 PM 66.2 °F 60.8 °F 83% 29.75 in 10.0 mi South 4.6 mph - N/A   Clear
6:35 PM 64.4 °F 60.8 °F 88% 29.76 in 10.0 mi SSE 3.5 mph - N/A   Scattered Clouds
6:55 PM 64.4 °F 60.8 °F 88% 29.77 in 10.0 mi South 3.5 mph - N/A   Scattered Clouds
7:15 PM 64.4 °F 60.8 °F 88% 29.77 in 10.0 mi SW 4.6 mph - N/A   Clear
7:35 PM 64.4 °F 59.0 °F 83% 29.78 in 10.0 mi Calm Calm - N/A   Clear
7:55 PM 62.6 °F 59.0 °F 88% 29.78 in 10.0 mi WSW 5.8 mph - N/A   Clear
8:15 PM 62.6 °F 48.2 °F 59% 29.79 in 10.0 mi West 3.5 mph - N/A   Clear
8:35 PM 62.6 °F 44.6 °F 52% 29.79 in 10.0 mi WSW 4.6 mph - N/A   Clear
8:55 PM 62.6 °F 42.8 °F 48% 29.79 in 10.0 mi WSW 4.6 mph - N/A   Clear
9:15 PM 62.6 °F 39.2 °F 42% 29.79 in 10.0 mi WSW 9.2 mph - N/A   Clear
9:35 PM 60.8 °F 39.2 °F 45% 29.79 in 10.0 mi WSW 5.8 mph - N/A   Clear
9:55 PM 60.8 °F 37.4 °F 42% 29.80 in 10.0 mi SW 4.6 mph - N/A   Clear
10:15 PM 60.8 °F 39.2 °F 45% 29.80 in 10.0 mi WSW 6.9 mph - N/A   Clear
10:35 PM 60.8 °F 41.0 °F 48% 29.81 in 10.0 mi WSW 4.6 mph - N/A   Clear
10:55 PM 59.0 °F 44.6 °F 59% 29.81 in 10.0 mi WNW 4.6 mph - N/A   Clear
11:15 PM 59.0 °F 46.4 °F 63% 29.81 in 10.0 mi West 5.8 mph - N/A   Clear
11:35 PM 57.2 °F 46.4 °F 67% 29.81 in 10.0 mi West 4.6 mph - N/A   Clear
11:55 PM 57.2 °F 46.4 °F 67% 29.81 in 10.0 mi WNW 5.8 mph - N/A   Clear